User: anonymous   Login
Location: Unspecified
(0.0000°N, 0.0000°E)
Time: 23:52:49
(UTC+00:00)
Language:

EDRS-C - Orbit

View from above orbital plane
View from above orbital plane
View from above satellite
View from above satellite

Ground track
Ground track

The orbit data is extracted from the following two-line orbital elements,

1 44475U 19049A   21339.70581637  .00000162  00000-0  00000+0 0  9990
2 44475   0.0730 268.1965 0000845 323.1591 128.6543  1.00269723  8607
Epoch (UTC): 05 December 2021 16:56:22
Eccentricity: 0.0000845
inclination: 0.0730°
perigee height: 35783 km
apogee height: 35790 km
right ascension of ascending node: 268.1965°
argument of perigee: 323.1591°
revolutions per day: 1.00269723
mean anomaly at epoch: 128.6543°
orbit number at epoch: 860

The dashed part of the orbit path shows where the satellite is in the earth's shadow,  

DLR